API VERSION: 1.2 API SOURCE: NASA/JPL Horizons API ******************************************************************************* JPL/HORIZONS 532037 Chiminigagua (2013 FY27) 2025-Dec-12 17:58:03 Rec #: 532037 (+COV) Soln.date: 2025-Apr-10_00:42:40 # obs: 139 (2011-2025) IAU76/J2000 helio. ecliptic osc. elements (au, days, deg., period=Julian yrs): EPOCH= 2457864.5 ! 2017-Apr-21.00 (TDB) Residual RMS= .11448 EC= .3916647205101159 QR= 35.88790727837637 TP= 2525575.907141929 OM= 187.1703133045093 W= 138.6060391018931 IN= 32.99057781326125 A= 58.99363145348065 MA= 212.7151024578246 ADIST= 82.09935562858493 PER= 453.12278 N= .002175186 ANGMOM= .121568992 DAN= 70.72402 DDN= 38.60194 L= 330.6944479 B= 21.1027749 MOID= 34.94449997 TP= 2202-Sep-10.4071419290 Asteroid physical parameters (km, seconds, rotational period in hours): GM= n.a. RAD= n.a. ROTPER= n.a. H= 3.09 G= .150 B-V= n.a. ALBEDO= n.a. STYP= n.a. ASTEROID comments: 1: soln ref.= JPL#18, OCC=4 2: source=ORB ******************************************************************************* ******************************************************************************* Ephemeris / API_USER Fri Dec 12 17:58:03 2025 Pasadena, USA / Horizons ******************************************************************************* Target body name: 532037 Chiminigagua (2013 FY27) {source: JPL#18} Center body name: Sun (10) {source: DE441} Center-site name: BODYCENTRIC ******************************************************************************* Start time : A.D. 2202-Oct-20 00:00:00.0000 UT Stop time : A.D. 2202-Nov-10 00:00:00.0000 UT Step-size : 1440 minutes ******************************************************************************* Target pole/equ : undefined Target radii : undefined Center geodetic : 0.0, 0.0, -695700.0 {E-lon(deg),Lat(deg),Alt(km)} Center cylindric: 0.0, 0.0, 0.0 {E-lon(deg),Dxy(km),Dz(km)} Center pole/equ : IAU_SUN {East-longitude positive} Center radii : 695700.0, 695700.0, 695700.0 km {Equator_a, b, pole_c} Target primary : Sun Vis. interferer : None Rel. light bend : Sun {source: DE441} Rel. lght bnd GM: 1.3271E+11 km^3/s^2 Small-body perts: Yes {source: SB441-N16} Atmos refraction: NO (AIRLESS) RA format : HMS Time format : CAL Calendar mode : Mixed Julian/Gregorian EOP file : eop.251212.p260310 EOP coverage : DATA-BASED 1962-JAN-20 TO 2025-DEC-12. PREDICTS-> 2026-MAR-09 Units conversion: 1 au= 149597870.700 km, c= 299792.458 km/s, 1 day= 86400.0 s Table cut-offs 1: Elevation (-90.0deg=NO ),Airmass n.a. , Daylight (NO ) Table cut-offs 2: Solar elongation ( 0.0,180.0=NO ),Local Hour Angle( 0.0=NO ) Table cut-offs 3: RA/DEC angular rate ( 0.0=NO ) ******************************************************************************* Initial IAU76/J2000 heliocentric ecliptic osculating elements (au, days, deg.): EPOCH= 2457864.5 ! 2017-Apr-21.00 (TDB) Residual RMS= .11448 EC= .3916647205101159 QR= 35.88790727837637 TP= 2525575.907141929 OM= 187.1703133045093 W= 138.6060391018931 IN= 32.99057781326125 Equivalent ICRF heliocentric cartesian coordinates (au, au/d): X=-7.534325596625712E+01 Y= 2.566655391589607E+01 Z=-9.425859553892675E+00 VX=-2.631362661639556E-04 VY=-1.498793983972669E-03 VZ= 2.285108090550874E-04 Asteroid physical parameters (km, seconds, rotational period in hours): GM= n.a. RAD= n.a. ROTPER= n.a. H= 3.09 G= .150 B-V= n.a. ALBEDO= n.a. STYP= n.a. ******************************************************************************* Date__(UT)__HR:MN delta deldot *************************************************** $$SOE 2202-Oct-20 00:00 35.5731793849968 -0.0018555 2202-Oct-21 00:00 35.5731783597859 -0.0016947 2202-Oct-22 00:00 35.5731774274824 -0.0015338 2202-Oct-23 00:00 35.5731765881353 -0.0013728 2202-Oct-24 00:00 35.5731758417940 -0.0012117 2202-Oct-25 00:00 35.5731751885082 -0.0010505 2202-Oct-26 00:00 35.5731746283278 -0.0008893 2202-Oct-27 00:00 35.5731741613030 -0.0007280 2202-Oct-28 00:00 35.5731737874840 -0.0005665 2202-Oct-29 00:00 35.5731735069212 -0.0004050 2202-Oct-30 00:00 35.5731733196648 -0.0002434 2202-Oct-31 00:00 35.5731732257654 -0.0000817 2202-Nov-01 00:00 35.5731732252733 0.0000800 2202-Nov-02 00:00 35.5731733182387 0.0002419 2202-Nov-03 00:00 35.5731735047117 0.0004039 2202-Nov-04 00:00 35.5731737847425 0.0005659 2202-Nov-05 00:00 35.5731741583807 0.0007280 2202-Nov-06 00:00 35.5731746256761 0.0008902 2202-Nov-07 00:00 35.5731751866780 0.0010525 2202-Nov-08 00:00 35.5731758414357 0.0012149 2202-Nov-09 00:00 35.5731765899981 0.0013773 2202-Nov-10 00:00 35.5731774324140 0.0015399 $$EOE ******************************************************************************* Column meaning: TIME Times PRIOR to 1962 are UT1, a mean-solar time closely related to the prior but now-deprecated GMT. Times AFTER 1962 are in UTC, the current civil or "wall-clock" time-scale. UTC is kept within 0.9 seconds of UT1 using integer leap-seconds for 1972 and later years. Conversion from the internal Barycentric Dynamical Time (TDB) of solar system dynamics to the non-uniform civil UT time-scale requested for output has not been determined for UTC times after the next July or January 1st. Therefore, the last known leap-second is used as a constant over future intervals. Time tags refer to the UT time-scale conversion from TDB on Earth regardless of observer location within the solar system, although clock rates may differ due to the local gravity field and no analog to "UT" may be defined for that location. Any 'b' symbol in the 1st-column denotes a B.C. date. First-column blank (" ") denotes an A.D. date. CALENDAR SYSTEM Mixed calendar mode was active such that calendar dates after AD 1582-Oct-15 (if any) are in the modern Gregorian system. Dates prior to 1582-Oct-5 (if any) are in the Julian calendar system, which is automatically extended for dates prior to its adoption on 45-Jan-1 BC. The Julian calendar is useful for matching historical dates. The Gregorian calendar more accurately corresponds to the Earth's orbital motion and seasons. A "Gregorian-only" calendar mode is available if such physical events are the primary interest. NOTE: "n.a." in output means quantity "not available" at the print-time. 'delta deldot' = Apparent range ("delta", light-time aberrated) and range-rate ("delta-dot") of the target center relative to the observer. A positive "deldot" means the target center is moving away from the observer, negative indicates movement toward the observer. Units: AU and KM/S Computations by ... Solar System Dynamics Group, Horizons On-Line Ephemeris System 4800 Oak Grove Drive, Jet Propulsion Laboratory Pasadena, CA 91109 USA General site: https://ssd.jpl.nasa.gov/ Mailing list: https://ssd.jpl.nasa.gov/email_list.html System news : https://ssd.jpl.nasa.gov/horizons/news.html User Guide : https://ssd.jpl.nasa.gov/horizons/manual.html Connect : browser https://ssd.jpl.nasa.gov/horizons/app.html#/x API https://ssd-api.jpl.nasa.gov/doc/horizons.html command-line telnet ssd.jpl.nasa.gov 6775 e-mail/batch https://ssd.jpl.nasa.gov/ftp/ssd/horizons_batch.txt scripts https://ssd.jpl.nasa.gov/ftp/ssd/SCRIPTS Author : Jon.D.Giorgini@jpl.nasa.gov *******************************************************************************